Regional Weather Roundup
Issued by NWS San Angelo, TX

Home | Current Version | Previous Version | Text Only | Print | Product List | Glossary On
Versions: 1 2 3 4 5 6 7 8 9 10 11 12 13 14 15 16 17 18 19 20 21 22 23 24 25 26 27 28 29 30 31 32 33 34 35 36 37 38 39 40 41 42 43 44 45 46 47 48 49 50
000
ASUS44 KSJT 221610
RWRSJT
WEST CENTRAL TEXAS REGIONAL WEATHER ROUNDUP
NATIONAL WEATHER SERVICE SAN ANGELO TX
1100 AM CDT SUN OCT 22 2017

NOTE: "FAIR" INDICATES FEW OR NO CLOUDS BELOW 12,000 FEET WITH NO
SIGNIFICANT WEATHER AND/OR OBSTRUCTIONS TO VISIBILITY.

TXZ049-054-064>066-071>073-076>078-098-099-113-114-127-128-139-140-
154-155-168>170-221700
...LOCATIONS ACROSS WEST CENTRAL TEXAS...

CITY           SKY/WX    TMP DP  RH WIND       PRES   REMARKS
SAN ANGELO     SUNNY     64  40  41 VRB5      30.27F
ABILENE        SUNNY     59  46  62 N12       30.27S
DYESS AFB      SUNNY     61  46  58 N8        30.27S
JUNCTION       SUNNY     68  47  46 NE9       30.23S
SWEETWATER     SUNNY     61  39  44 N8        30.31S
BROWNWOOD      NOT AVBL
COLEMAN        SUNNY     63  48  57 N14       30.25S
SONORA         SUNNY     66  41  39 NE12G20   30.31R
OZONA          FAIR      64  36  34 NE15G25   30.31S
BRADY          NOT AVBL
$$

TEXAS PANHANDLE/OKLAHOMA PANHANDLE

CITY           SKY/WX    TMP DP  RH WIND       PRES   REMARKS
AMARILLO       SUNNY     56  29  35 NW6       30.33R
BORGER         SUNNY     52  27  38 W6        30.32R
CANADIAN       SUNNY     56  31  38 NW6       30.29S
DALHART        SUNNY     56  22  26 S9        30.32F
DUMAS          SUNNY     55  24  29 SW7       30.31S
GUYMON         NOT AVBL
HEREFORD       SUNNY     56  34  42 CALM      30.35R
PAMPA          SUNNY     54  31  42 W5        30.32S
PERRYTON       SUNNY     58  29  32 W6        30.28R
$$

SOUTHERN PANHANDLE/SOUTH PLAINS/ROLLING PLAINS

CITY           SKY/WX    TMP DP  RH WIND       PRES   REMARKS
LUBBOCK        MOSUNNY   60  33  36 VRB3      30.32S
SNYDER         SUNNY     60  34  37 NE13      30.30R
CHILDRESS      SUNNY     60  37  42 NW8       30.30R
SEMINOLE       SUNNY     61  30  31 E8        30.36R
$$

PERMIAN BASIN

CITY           SKY/WX    TMP DP  RH WIND       PRES   REMARKS
MIDLAND        SUNNY     62  34  35 E10       30.33R
ODESSA         NOT AVBL
WINK           SUNNY     61  34  36 CALM      30.34R
$$

FAR WEST/SOUTHWEST MOUNTAINS/TRANS PECOS

CITY           SKY/WX    TMP DP  RH WIND       PRES   REMARKS
ALPINE         SUNNY     59  36  42 E5        30.43S
DRYDEN           N/A     69  41  36 N13G24    30.28R
EL PASO        SUNNY     64  14  14 N10       30.35R
FORT STOCKTON  SUNNY     60  37  42 N3        30.36R
GUADALUPE PASS SUNNY     55  25  31 NE18      30.39R
MARFA          SUNNY     65  23  20 NE14      30.38R
PECOS          SUNNY     60  35  39 CALM      30.35F
$$

DALLAS/FORT WORTH METROPLEX

CITY           SKY/WX    TMP DP  RH WIND       PRES   REMARKS
DFW AIRPORT    PTSUNNY   67  59  75 N16       30.14S
FTW MEACHAM    CLOUDY    64  59  83 NW16      30.17R
DAL-EXECUTIVE  MOSUNNY   66  60  81 N9        30.14S
GRAND PRAIRIE  MOSUNNY   66  57  72 NW5       30.16S
ADDISON        PTSUNNY   64  59  82 NW16      30.16R
MESQUITE       MOSUNNY   66  61  82 NW12      30.14R
LANCASTER      MOSUNNY   66  61  83 NW9       30.15S
$$

NORTH CENTRAL TEXAS

CITY           SKY/WX    TMP DP  RH WIND       PRES   REMARKS
SHRMAN/DENISON PTSUNNY   61  55  82 NW10      30.19S
GAINESVILLE    SUNNY     61  52  72 N14       30.21R
BRIDGEPORT     MOSUNNY   61  53  74 NW8       30.23S
DENTON         CLOUDY    61  57  87 NW14      30.18R
WAXAHACHIE     PTSUNNY   67  62  86 NW13      30.16S
GRANBURY       PTSUNNY   64  57  78 NW13      30.21S
$$

WESTERN NORTH TEXAS

CITY           SKY/WX    TMP DP  RH WIND       PRES   REMARKS
WICHITA FALLS  SUNNY     62  49  62 N12       30.24R
VERNON         SUNNY     61  39  43 N9        30.28R
BRECKENRIDGE   SUNNY     62  49  61 N9        30.25S
COMANCHE       CLOUDY    58  57  94 N14       30.24R
$$

CENTRAL AND SOUTH CENTRAL TEXAS

CITY           SKY/WX    TMP DP  RH WIND       PRES   REMARKS
AUSTIN/BERGSTM CLOUDY    66  61  84 N15       30.16R
WACO           CLOUDY    67  61  81 NW12      30.16R
HILLSBORO      NOT AVBL
TEMPLE         CLOUDY    64  61  88 NW13      30.18R
KILLEEN-GRAY   CLOUDY    63  57  82 NW14      30.18R
FORT HOOD      CLOUDY    61  58  89 N12       30.15R
GEORGETOWN     CLOUDY    64  60  87 NW10      30.20R
LAGO VISTA     CLOUDY    62  59  90 N7G16     30.19R
SAN MARCOS     CLOUDY    68  60  75 N18G25    30.17R
NEW BRAUNFELS  PTSUNNY   68  61  78 N13       30.15R
RANDOLPH AFB   MOSUNNY   70  59  68 NE14      30.16R
SAN ANTONIO    MOSUNNY   70  59  68 N16G22    30.15R
STINSON        SUNNY     74  62  66 N12       30.12R
PLEASANTON     NOT AVBL
LA GRANGE      CLOUDY    64  64  97 CALM      30.14R
GIDDINGS       CLOUDY    60  59  96 N6        30.16R
$$

EAST TEXAS

CITY           SKY/WX    TMP DP  RH WIND       PRES   REMARKS
PARIS          CLOUDY    62  59  90 NW14      30.12F
CLARKSVILLE    NOT AVBL
TYLER          CLOUDY    62  61  96 NW10      30.10R
LONGVIEW       CLOUDY    61  61 100 NW10      30.12R
PALESTINE        N/A     62  62  99 W7        30.13R
NACOGDOCHES    CLOUDY    60  59  96 SE10      30.05F
$$

TEXAS HILL COUNTRY AND EDWARDS PLATEAU

CITY           SKY/WX    TMP DP  RH WIND       PRES   REMARKS
LLANO          PTSUNNY   64  55  72 N3        30.25S
HORSESHOE BAY  CLOUDY    63  57  81 N7        30.21R
KERRVILLE      SUNNY     66  55  67 NW9       30.20S
FREDERICKSBRG  SUNNY     65  52  62 N7        30.21S
ROCKSPRINGS    NOT AVBL
HONDO          MOSUNNY   77  54  44 NE16G28   30.15R
UVALDE         SUNNY     73  53  49 NE17      30.16R
DEL RIO        SUNNY     71  53  52 NW14      30.21R
$$

SOUTHEAST TEXAS

CITY           SKY/WX    TMP DP  RH WIND       PRES   REMARKS
COLLEGE STN    CLOUDY    63  61  93 CALM      30.15R
CALDWELL       CLOUDY    62  61  95 NW3       30.16S
CROCKETT         N/A     61  59  94 NW5       30.13R
BRENHAM        CLOUDY    63  63  99 NW3       30.16R THUNDER
HUNTSVILLE     LGT RAIN  62  58  86 W10       30.09F
CONROE         LGT RAIN  61  61 100 E9G17     30.08F
HOUSTON BUSH   RAIN      62  61  96 SE14      30.13S
HOUSTON HOBBY  LGT RAIN  64  60  87 NE15      30.11F
PERLAND        LGT RAIN  64  60  87 NE12G21   30.14S
WHARTON        DRIZZLE   63  62  97 N9        30.13F
$$

THE UPPER TEXAS COAST

CITY           SKY/WX    TMP DP  RH WIND       PRES   REMARKS
ORANGE         NOT AVBL
PORT ARTHUR    CLOUDY    62  59  90 NE15G22   30.13F
GALVESTON      RAIN      66  63  90 N28G36    30.13R FOG
ANGLETON       CLOUDY    64  61  90 NE14      30.13S
BAY CITY       LGT RAIN  65  64  95 N12G20    30.12R
$$

TEXAS COASTAL BEND, RIO GRANDE PLAINS DEEP SOUTH TEXAS

CITY           SKY/WX    TMP DP  RH WIND       PRES   REMARKS
VICTORIA       CLOUDY    65  60  84 N21G33    30.11R
BEEVILLE       PTSUNNY   83  75  78 W7        30.07R
ROCKPORT       SUNNY     84  77  79 NW9       30.06R
PORT ARANSAS   NOT AVBL
PORT LAVACA    LGT RAIN  64  62  92 N24G37    30.11R VSB 1/2
CORPUS CHRISTI PTSUNNY   83  76  79 NW8       30.05R
KINGSVILLE NAS PTSUNNY   84  78  82 VRB7      30.05R
COTULLA        PTSUNNY   82  71  69 N12       30.09S
LAREDO         CLOUDY    79  72  79 NW7       30.09R
BROWNSVILLE    SUNNY     88  77  69 VRB5      30.02R
PORT ISABEL    PTSUNNY   87  77  72 W6        30.01R
HEBBRONVILLE   SUNNY     83  71  66 NW7       30.08R
MCALLEN        MOSUNNY   86  76  71 CALM      30.04R
WESLACO        PTSUNNY   81  75  83 CALM      30.03S
FALFURRIAS     MOSUNNY   82  74  75 SW3       30.05R
EDINBURG       MOSUNNY   84  75  73 S3        30.04S
$$



USA.gov is the U.S. government's official web portal to all federal, state and local government web resources and services.